Date String (YYYY-MM-DD hh:mm:ss) UTC,Instrument flags,absolute air pressure of the measurement (hPa),sample flow rate (lpm),inlet stack bypass flow (lpm),air temperature of the measurement (°C),ambient temperature measured by the external sensor (°C),aerosol sample conditioner tube jacket temperature (°C),OPC LED temperature (°C),internal box temperature (°C),relative humidity of the measurement (%),span deviation,mass concentration of particles derived from Lorenz-Mie calculation of OPC scattering (μg/m³),mass concentration of particles derived from Lorenz-Mie calculation of OPC scattering (μg/m³),mass concentration of particles derived from Lorenz-Mie calculation of OPC scattering (μg/m³)
DateTimeUTC,F1_M11,P_M11,Q1_M11,Q2_M11,T1_M11,T2_M11,T3_M11,T4_M11,T5_M11,U1_M11,ZSPAN_M11,X2_M11,X0_M11,X1_M11
2024-04-20 21:00:00,SystemResetWarning,0835.2,5.01,000.00,020.2,019.7,000.0,028.8,022.1,022.0,0000.0,0005.20,0006.53,0005.11
2024-04-20 21:01:00,SystemResetWarning,0835.1,5.01,000.00,020.3,019.7,000.0,028.8,022.1,022.0,0000.0,0005.24,0006.60,0005.14
2024-04-20 21:02:00,SystemResetWarning,0835.1,5.01,000.00,020.2,019.7,000.0,028.8,022.1,022.0,0000.0,0005.28,0006.68,0005.18
2024-04-20 21:03:00,SystemResetWarning,0835.1,5.00,000.00,020.2,019.7,000.0,028.8,022.1,022.0,0000.0,0005.31,0006.75,0005.20
2024-04-20 21:04:00,SystemResetWarning,0835.1,5.00,000.00,020.2,019.6,000.0,028.8,022.1,022.0,0000.0,0005.35,0006.86,0005.24
2024-04-20 21:05:00,SystemResetWarning,0835.2,5.00,000.00,020.2,019.6,000.0,028.8,022.1,021.9,0000.0,0005.43,0007.07,0005.30
2024-04-20 21:06:00,SystemResetWarning,0835.2,5.00,000.00,020.3,019.7,000.0,028.8,022.1,021.8,0000.0,0005.46,0007.14,0005.34
2024-04-20 21:07:00,SystemResetWarning,0835.2,5.00,000.00,020.3,019.7,000.0,028.8,022.1,021.8,0000.0,0005.51,0007.22,0005.37
2024-04-20 21:08:00,SystemResetWarning,0835.2,5.00,000.00,020.3,019.7,000.0,028.8,022.1,021.7,0000.0,0005.53,0007.26,0005.40
2024-04-20 21:09:00,SystemResetWarning,0835.2,5.00,000.00,020.3,019.7,000.0,028.8,022.1,021.7,0000.0,0005.56,0007.38,0005.42
2024-04-20 21:10:00,SystemResetWarning,0835.2,5.00,000.00,020.3,019.7,000.0,028.8,022.1,021.7,0000.0,0005.59,0007.41,0005.44
2024-04-20 21:11:00,SystemResetWarning,0835.3,5.00,000.00,020.3,019.7,000.0,028.8,022.1,021.7,0000.0,0005.63,0007.48,0005.47
2024-04-20 21:12:00,SystemResetWarning,0835.3,5.00,000.00,020.3,019.7,000.0,028.8,022.1,021.7,0000.0,0005.65,0007.49,0005.50
2024-04-20 21:13:00,SystemResetWarning,0835.3,5.01,000.00,020.3,019.7,000.0,028.8,022.1,021.7,0000.0,0005.70,0007.60,0005.53
2024-04-20 21:14:00,SystemResetWarning,0835.2,5.01,000.00,020.3,019.7,000.0,028.8,022.1,021.6,0000.0,0005.73,0007.64,0005.56
2024-04-20 21:15:00,SystemResetWarning,0835.3,5.00,000.00,020.3,019.7,000.0,028.8,022.1,021.6,0000.0,0005.76,0007.68,0005.57
2024-04-20 21:16:00,SystemResetWarning,0835.3,5.00,000.00,020.3,019.7,000.0,028.8,022.1,021.6,0000.0,0005.77,0007.68,0005.57
2024-04-20 21:17:00,SystemResetWarning,0835.3,4.99,000.00,020.3,019.7,000.0,028.8,022.1,021.7,0000.0,0005.77,0007.67,0005.58
2024-04-20 21:18:00,SystemResetWarning,0835.2,4.99,000.00,020.3,019.7,000.0,028.8,022.1,021.6,0000.0,0005.78,0007.67,0005.58
2024-04-20 21:19:00,SystemResetWarning,0835.2,5.00,000.00,020.3,019.7,000.0,028.8,022.1,021.7,0000.0,0005.78,0007.64,0005.58
2024-04-20 21:20:00,SystemResetWarning,0835.2,5.01,000.00,020.3,019.7,000.0,028.8,022.1,021.7,0000.0,0005.77,0007.59,0005.58
2024-04-20 21:21:00,SystemResetWarning,0835.3,5.01,000.00,020.3,019.7,000.0,028.8,022.1,021.7,0000.0,0005.77,0007.56,0005.57
2024-04-20 21:22:00,SystemResetWarning,0835.3,5.00,000.00,020.3,019.7,000.0,028.8,022.1,021.8,0000.0,0005.74,0007.53,0005.56
2024-04-20 21:23:00,SystemResetWarning,0835.3,5.00,000.00,020.3,019.7,000.0,028.8,022.1,021.9,0000.0,0005.74,0007.57,0005.55
2024-04-20 21:24:00,SystemResetWarning,0835.3,4.99,000.00,020.3,019.7,000.0,028.8,022.1,021.8,0000.0,0005.70,0007.82,0005.52
2024-04-20 21:25:00,SystemResetWarning,0835.3,4.99,000.00,020.3,019.7,000.0,028.8,022.1,021.8,0000.0,0005.65,0008.15,0005.50
2024-04-20 21:26:00,SystemResetWarning,0835.2,5.00,000.00,020.3,019.6,000.0,028.8,022.0,021.8,0000.0,0005.61,0008.09,0005.48
2024-04-20 21:27:00,SystemResetWarning,0835.2,5.00,000.00,020.2,019.6,000.0,028.8,022.0,021.8,0001.0,0005.60,0008.11,0005.46
2024-04-20 21:28:00,SystemResetWarning,0835.2,5.01,000.00,020.2,019.6,000.0,028.8,022.0,021.8,0001.5,0005.58,0008.07,0005.45
2024-04-20 21:29:00,SystemResetWarning,0835.2,5.01,000.00,020.2,019.6,000.0,028.8,022.0,021.9,0001.2,0005.58,0008.08,0005.44
2024-04-20 21:30:00,SystemResetWarning,0835.2,5.00,000.00,020.2,019.6,000.0,028.8,022.1,022.0,0001.7,0005.57,0008.07,0005.44
2024-04-20 21:31:00,SystemResetWarning,0835.3,4.99,000.00,020.2,019.6,000.0,028.8,022.0,022.0,0001.2,0005.54,0008.04,0005.42
2024-04-20 21:32:00,SystemResetWarning,0835.3,4.99,000.00,020.2,019.6,000.0,028.8,022.0,022.1,0000.0,0005.52,0008.01,0005.40
2024-04-20 21:33:00,SystemResetWarning,0835.2,4.99,000.00,020.2,019.6,000.0,028.8,022.0,022.1,0000.0,0005.49,0007.95,0005.38
2024-04-20 21:34:00,SystemResetWarning,0835.2,5.01,000.00,020.2,019.5,000.0,028.8,022.0,022.1,0000.0,0005.48,0007.91,0005.36
2024-04-20 21:35:00,SystemResetWarning,0835.2,5.00,000.00,020.2,019.5,000.0,028.8,022.0,022.0,0000.0,0005.48,0007.58,0005.36
2024-04-20 21:36:00,SystemResetWarning,0835.2,5.01,000.00,020.2,019.5,000.0,028.8,022.0,022.1,0000.0,0005.51,0007.16,0005.37
2024-04-20 21:37:00,SystemResetWarning,0835.3,5.01,000.00,020.2,019.5,000.0,028.8,022.0,022.1,0000.0,0005.52,0007.23,0005.37
2024-04-20 21:38:00,SystemResetWarning,0835.3,4.99,000.00,020.2,019.5,000.0,028.8,022.0,022.0,0000.0,0005.50,0007.52,0005.37
2024-04-20 21:39:00,SystemResetWarning,0835.3,4.99,000.00,020.2,019.5,000.0,028.8,022.0,022.0,0000.0,0005.49,0007.50,0005.35
2024-04-20 21:40:00,SystemResetWarning,0835.3,5.01,000.00,020.2,019.4,000.0,028.8,021.9,022.1,0000.0,0005.48,0007.50,0005.34
2024-04-20 21:41:00,SystemResetWarning,0835.4,5.02,000.00,020.2,019.4,000.0,028.8,021.9,022.1,0000.0,0005.47,0007.52,0005.33
2024-04-20 21:42:00,SystemResetWarning,0835.4,5.00,000.00,020.1,019.4,000.0,028.8,021.9,022.2,0000.0,0005.45,0007.55,0005.31
2024-04-20 21:43:00,SystemResetWarning,0835.4,4.99,000.00,020.1,019.4,000.0,028.7,021.9,022.2,0000.0,0005.45,0007.56,0005.31
2024-04-20 21:44:00,SystemResetWarning,0835.4,4.99,000.00,020.1,019.5,000.0,028.7,021.9,022.1,0000.0,0005.48,0007.61,0005.32
2024-04-20 21:45:00,SystemResetWarning,0835.4,5.01,000.00,020.1,019.4,000.0,028.7,021.9,022.0,0000.0,0005.49,0007.60,0005.34
2024-04-20 21:46:00,SystemResetWarning,0835.5,5.02,000.00,020.1,019.4,000.0,028.7,021.9,022.0,0000.0,0005.50,0007.60,0005.36
2024-04-20 21:47:00,SystemResetWarning,0835.5,5.00,000.00,020.1,019.4,000.0,028.7,021.9,022.0,0000.0,0005.51,0007.60,0005.38
2024-04-20 21:48:00,SystemResetWarning,0835.5,4.99,000.00,020.1,019.4,000.0,028.7,021.9,022.0,0000.0,0005.55,0007.72,0005.41
2024-04-20 21:49:00,SystemResetWarning,0835.5,4.99,000.00,020.1,019.4,000.0,028.7,021.9,022.1,0000.0,0005.57,0007.48,0005.43
2024-04-20 21:50:00,SystemResetWarning,0835.6,5.00,000.00,020.1,019.3,000.0,028.7,021.9,022.3,0000.0,0005.59,0007.50,0005.45
2024-04-20 21:51:00,SystemResetWarning,0835.6,5.00,000.00,020.1,019.4,000.0,028.7,021.9,023.0,0000.0,0005.60,0007.51,0005.47
2024-04-20 21:52:00,SystemResetWarning,0835.5,5.00,000.00,020.1,019.3,000.0,028.7,021.9,022.5,0000.0,0005.61,0007.49,0005.47
2024-04-20 21:53:00,SystemResetWarning,0835.5,5.00,000.00,020.1,019.4,000.0,028.7,021.9,022.3,0000.0,0005.63,0007.44,0005.48
2024-04-20 21:54:00,SystemResetWarning,0835.5,5.00,000.00,020.1,019.4,000.0,028.7,021.9,022.2,0000.0,0005.65,0007.47,0005.49
2024-04-20 21:55:00,SystemResetWarning,0835.5,5.00,000.00,020.1,019.4,000.0,028.7,021.9,022.2,0000.0,0005.64,0007.46,0005.49
2024-04-20 21:56:00,SystemResetWarning,0835.5,4.99,000.00,020.1,019.4,000.0,028.7,021.9,022.2,0000.0,0005.63,0007.47,0005.47
2024-04-20 21:57:00,SystemResetWarning,0835.5,4.99,000.00,020.1,019.4,000.0,028.7,021.9,022.2,0000.0,0005.61,0007.44,0005.45
2024-04-20 21:58:00,SystemResetWarning,0835.5,5.00,000.00,020.1,019.4,000.0,028.7,021.9,022.1,0000.0,0005.60,0007.43,0005.45
2024-04-20 21:59:00,SystemResetWarning,0835.6,4.99,000.00,020.1,019.4,000.0,028.7,021.9,022.1,0000.0,0005.55,0007.26,0005.42
